Location: Newark
(41.0400°S, 62.7845°W)
Time: 23:18:55
(UTC+00:00)

Vanguard 2 - Pass Details

Date: 12 December 2021
Orbit: 554 x 2935 km, 32.9° (Epoch: 27 January)

Event Time Altitude Azimuth Distance (km) Brightness Sun altitude
Rises 04:50:59 0° 276° (W) 6,538 12.1 -25.0°
Reaches altitude 10° 04:55:10 10° 278° (W) 5,663 11.7 -24.8°
Maximum altitude 05:12:46 64° 353° (N) 3,053 10.1 -24.0°
Drops below altitude 10° 05:27:31 10° 70° (ENE) 4,844 11.6 -23.1°
Sets 05:30:47 0° 72° (ENE) 5,585 12.0 -22.8°
